Simultaneous Nadir Overpasses (SNOs) Predictions

Prediction of SNOs between TERRA and METOP-C Satellite Orbit:

Table of predicted SNOs for the next 14.0 days since TLE Epoch: 11/7/2020
Index Date (TERRA) Time (TERRA) Lat,Lon (TERRA) SZA (TERRA ) Date (METOP-C) Time (METOP-C) Lat,Lon (METOP-C) SZA (METOP-C ) Distance(km) Time Diff (sec)
1 11/07/2020 22:44:45 -81.27, 65.41 79.05 11/07/2020 22:44:35 -81.27, 65.42 79.05 0.21 10
2 11/07/2020 23:34:11 81.28,-126.85 100.98 11/07/2020 23:35:14 81.28,-126.72 101.03 2.27 63
3 11/10/2020 17:29:46 80.97, -40.50 101.00 11/10/2020 17:28:32 81.15, -40.87 101.05 20.97 74
4 11/10/2020 18:19:00 -81.27, 131.83 78.27 11/10/2020 18:18:59 -81.28, 131.94 78.25 1.82 1
5 11/10/2020 19:08:26 81.28, -60.46 101.76 11/10/2020 19:09:39 81.28, -60.57 101.78 1.88 73
6 11/13/2020 13:03:48 81.27, 30.59 102.46 11/13/2020 13:02:43 81.27, 30.66 102.44 1.21 65
7 11/13/2020 13:53:15 -81.27,-161.79 77.54 11/13/2020 13:53:24 -81.27,-161.96 77.55 2.74 9
8 11/16/2020 08:38:02 81.26, 96.89 103.14 11/16/2020 08:37:07 81.26, 96.78 103.10 1.96 55
9 11/16/2020 09:27:28 -81.28, -95.09 76.80 11/16/2020 09:27:46 -81.28, -95.09 76.79 0.66 18
10 11/19/2020 04:12:16 81.27, 163.53 103.82 11/19/2020 04:11:30 81.27, 163.66 103.81 2.18 46



Historial Predications of SNOs between TERRA and METOP-C
